Regional Weather Roundup
Issued by NWS

Home | Current Version | Previous Version | Graphics & Text | Print | Product List | Glossary On
Versions: 1 2 3 4 5 6 7 8 9 10 11 12 13 14 15 16 17 18 19 20 21 22 23 24 25 26 27 28 29 30 31 32 33 34 35 36 37 38 39 40 41 42 43 44 45 46 47 48 49 50
000
ASUS43 KLMK 020110
RWRKY
KENTUCKY REGIONAL WEATHER ROUNDUP
NATIONAL WEATHER SERVICE LOUISVILLE KY
800 PM EST THU DEC 01 2016

NOTE "FAIR" INDICATES FEW OR NO CLOUDS BELOW 12,000 FEET
WITH NO SIGNIFICANT WEATHER AND/OR OBSTRUCTIONS TO VISIBILITY.

KYZ001>023-026-027-061>063-070>075-020200-
WESTERN AND SOUTH CENTRAL KENTUCKY

CITY           SKY/WX    TMP DP  RH WIND       PRES   REMARKS
PADUCAH        CLEAR     36  28  73 S5        30.07S WCI  32
HENDERSON      CLEAR     34  25  69 CALM      30.08R
OWENSBORO      CLEAR     37  31  78 W3        30.09R
HOPKINSVILLE   CLEAR     42  26  53 W3        30.08R
BOWLING GREEN  CLEAR     41  28  60 SW3       30.07S
GLASGOW        CLEAR     36  30  78 CALM      30.07R
$$

KYZ024-025-028>034-038-045-046-053-020200-
NORTH CENTRAL KENTUCKY

CITY           SKY/WX    TMP DP  RH WIND       PRES   REMARKS
LOUISVILLE/SDF CLEAR     40  26  57 W6        30.05R
LOUISVILLE/LOU CLEAR     41  27  57 W3        30.05R
FORT KNOX      CLEAR     35  26  71 CALM      30.04R
$$

KYZ035>037-039>044-047>052-055>060-089>105-020200-
NORTHEAST KENTUCKY

CITY           SKY/WX    TMP DP  RH WIND       PRES   REMARKS
LEXINGTON      CLEAR     39  27  62 W8        30.03R WCI  33
COVINGTON      CLEAR     35  27  72 W7        30.02R WCI  29
FRANKFORT      CLEAR     37  26  64 SW5       30.02R WCI  33
$$

KYZ054-064>069-076>088-106>120-020200-
SOUTHEAST KENTUCKY

CITY           SKY/WX    TMP DP  RH WIND       PRES   REMARKS
JACKSON        CLEAR     40  28  62 SW3       30.01S
LONDON         CLEAR     37  28  70 CALM      30.03S
SOMERSET       PTCLDY    39  28  65 W3        30.07R
MIDDLESBORO    CLEAR     36  32  87 CALM      30.06R
MONTICELLO     CLEAR     31  27  85 W6        30.08R WCI  25
$$





USA.gov is the U.S. government's official web portal to all federal, state and local government web resources and services.